Simultaneous Nadir Overpasses (SNOs) Predictions

Prediction of SNOs between METOP-A and NOAA-19 Satellite Orbit:

Table of predicted SNOs for the next 14.0 days since TLE Epoch: 9/24/2016
Index Date (METOP-A) Time (METOP-A) Lat,Lon (METOP-A) SZA (METOP-A ) Date (NOAA-19) Time (NOAA-19) Lat,Lon (NOAA-19) SZA (NOAA-19 ) Distance(km) Time Diff (sec)
1 09/24/2016 10:39:45 76.93, 23.42 77.64 09/24/2016 10:38:40 76.92, 19.72 77.57 93.10 65
2 09/24/2016 11:30:37 -76.45,-171.11 102.87 09/24/2016 11:29:33 -76.46,-171.14 102.86 1.27 64
3 09/24/2016 12:21:18 76.42, -3.88 77.12 09/24/2016 12:20:31 76.45, -3.86 77.15 3.22 47
4 09/24/2016 13:11:59 -76.43, 163.49 102.86 09/24/2016 13:11:34 -76.42, 163.51 102.87 1.73 25
5 09/24/2016 14:02:40 76.40, -29.29 77.13 09/24/2016 14:02:32 76.41, -29.20 77.14 2.26 8
6 09/24/2016 14:53:21 -76.42, 138.08 102.85 09/24/2016 14:53:36 -76.42, 137.99 102.84 2.55 15
7 09/24/2016 15:44:02 76.39, -54.69 77.14 09/24/2016 15:44:34 76.41, -54.72 77.17 3.02 32
8 09/24/2016 16:34:42 -76.40, 112.68 102.84 09/24/2016 16:35:36 -76.38, 112.64 102.85 2.04 54
9 09/24/2016 17:25:23 76.37, -80.10 77.15 09/24/2016 17:26:34 76.37, -80.07 77.16 0.85 71
10 10/05/2016 03:26:32 76.54, 130.27 81.39 10/05/2016 03:25:18 76.55, 129.81 81.38 11.95 74
11 10/05/2016 04:17:15 -76.47, -62.68 98.68 10/05/2016 04:16:18 -76.49, -62.70 98.67 2.45 57
12 10/05/2016 05:07:55 76.48, 104.70 81.35 10/05/2016 05:07:18 76.47, 104.64 81.33 2.16 37
13 10/05/2016 05:58:37 -76.45, -88.08 98.67 10/05/2016 05:58:19 -76.45, -88.05 98.68 0.74 18
14 10/05/2016 06:49:17 76.46, 79.29 81.36 10/05/2016 06:49:19 76.43, 79.29 81.32 3.93 2
15 10/05/2016 07:39:59 -76.43,-113.49 98.67 10/05/2016 07:40:20 -76.41,-113.41 98.68 3.26 21
16 10/05/2016 08:30:38 76.44, 53.88 81.36 10/05/2016 08:31:20 76.43, 53.77 81.35 3.37 42
17 10/05/2016 09:21:20 -76.42,-138.89 98.66 10/05/2016 09:22:21 -76.42,-138.93 98.65 0.86 61
18 10/05/2016 10:12:06 76.15, 27.50 81.08 10/05/2016 10:13:16 76.17, 29.25 81.14 46.64 70




NCC Satellite Simultaneous Nadir Overpasses (SNOs) Prediction Service
